Weather History for Quinhagak|Kwinhagak Airport, AK

Change the Weather History Date:

Saturday, January 18, 2014

  Actual Average (PABE) Record (PABE)
Temperature  
Mean Temperature 30 °F -  
Max Temperature 32 °F 12 °F 39 °F (1963)
Min Temperature 28 °F - -34 °F (1951)
Degree Days  
Heating Degree Days 35 59  
Month to date heating degree days 1057  
Since 1 July heating degree days 6481  
Cooling Degree Days 0    
Month to date cooling degree days  
Year to date cooling degree days  
Moisture  
Dew Point 28 °F    
Average Humidity 91    
Maximum Humidity 100    
Minimum Humidity 82    
Precipitation  
Precipitation 0.00 in 0.02 in 0.49 in (1967)
Month to date precipitation 0.48  
Year to date precipitation 0.48  
Snow  
Snow 0.00 in 0.30 in 4.90 in (1967)
Month to date snowfall 6.0  
Since 1 July snowfall 35.3  
Snow Depth -    
Sea Level Pressure  
Sea Level Pressure 29.03 in    
Wind  
Wind Speed 25 mph (SSE)    
Max Wind Speed 37 mph    
Max Gust Speed 41 mph    
Visibility 5 miles    
Events Fog , Snow    
T = Trace of Precipitation, MM = Missing Value Source: NWS Daily Summary

Daily Weather History Graph

Daily Weather History Graph

Search for Another Location

Airport:

Trip Planner

Search our weather history database for the weather conditions in past years. The results will help you decide how hot, cold, wet, or windy it might be!

Date:

Astronomy

Jan. 18, 2014 Rise Set
Actual Time 10:27 AM AKST 5:28 PM AKST
Civil Twilight 9:36 AM AKST 6:19 PM AKST
Nautical Twilight 8:43 AM AKST 7:12 PM AKST
Astronomical Twilight 7:54 AM AKST 8:02 PM AKST
Moon 9:19 PM AKST (1/18) 10:41 AM AKST (1/18)
Length of Visible Light 8h 43m
Length of Day
7h 01m
Waning Gibbous, 94% of the Moon is Illuminated
Jan 18
Waning Gibbous
Jan 23
Last Quarter
Jan 30
New
Feb 6
First Quarter
Feb 14
Full

Hourly Weather History & Observations

Time (AKST) Temp. Windchill Dew Point Humidity Pressure Visibility Wind Dir Wind Speed Gust Speed Precip Events Conditions
12:12 AM 32.0 °F 19.8 °F 30.2 °F 93% 28.57 in 3.0 mi SSE 20.7 mph 27.6 mph 0.00 in Snow Light Snow
12:14 AM 32.0 °F 19.8 °F 30.2 °F 93% 28.57 in 3.0 mi SSE 20.7 mph - 0.00 in Snow Light Snow
12:26 AM 32.0 °F 18.9 °F 30.2 °F 93% 28.59 in 2.5 mi SSE 24.2 mph - 0.00 in Snow Light Snow
12:34 AM 32.0 °F 18.9 °F 30.2 °F 93% 28.59 in 4.0 mi SSE 24.2 mph - 0.00 in Snow Light Snow
12:56 AM 32.0 °F 20.1 °F 30.0 °F 92% 28.61 in 7.0 mi SSE 19.6 mph - 0.00 in   Overcast
1:23 AM 32.0 °F 19.5 °F 30.2 °F 93% 28.62 in 4.0 mi SSE 21.9 mph - 0.00 in   Overcast
1:40 AM 32.0 °F 18.9 °F 28.4 °F 87% 28.64 in 5.0 mi SSE 24.2 mph - 0.00 in   Overcast
1:56 AM 30.9 °F 17.2 °F 28.9 °F 92% 28.66 in 5.0 mi SSE 25.3 mph - 0.00 in   Overcast
2:50 AM 30.2 °F 16.8 °F 28.4 °F 93% 28.69 in 6.0 mi SSE 23.0 mph - 0.00 in   Overcast
2:56 AM 30.9 °F 17.2 °F 28.9 °F 92% 28.70 in 7.0 mi SSE 25.3 mph - 0.00 in   Overcast
3:16 AM 30.2 °F 16.8 °F 28.4 °F 93% 28.71 in 7.0 mi SSE 23.0 mph - 0.00 in Snow Light Snow
3:56 AM 30.9 °F 17.5 °F 28.0 °F 89% 28.73 in 10.0 mi SSE 24.2 mph - 0.00 in   Overcast
4:37 AM 30.2 °F 16.5 °F 28.4 °F 93% 28.75 in 5.0 mi SSE 24.2 mph - 0.00 in Snow Light Snow
4:52 AM 30.2 °F 16.2 °F 28.4 °F 93% 28.76 in 2.5 mi SSE 25.3 mph - 0.00 in Snow Light Snow
4:56 AM 30.9 °F 17.8 °F 28.9 °F 92% 28.77 in 3.0 mi SSE 23.0 mph - 0.00 in Snow Light Snow
5:10 AM 30.2 °F 17.1 °F 28.4 °F 93% 28.77 in 9.0 mi SSE 21.9 mph - 0.00 in   Overcast
5:56 AM 30.9 °F 17.2 °F 28.0 °F 89% 28.80 in 10.0 mi SSE 25.3 mph 32.2 mph 0.00 in   Partly Cloudy
6:56 AM 30.9 °F 17.5 °F 27.0 °F 85% 28.85 in 10.0 mi SSE 24.2 mph 32.2 mph N/A   Scattered Clouds
7:56 AM 30.0 °F 16.0 °F 28.0 °F 92% 28.89 in 9.0 mi SSE 25.3 mph 29.9 mph 0.00 in Snow Light Snow
8:29 AM 30.2 °F 16.2 °F 26.6 °F 86% 28.90 in 10.0 mi SSE 25.3 mph 34.5 mph 0.00 in   Overcast
8:50 AM 30.2 °F 15.4 °F 26.6 °F 86% 28.92 in 10.0 mi SSE 28.8 mph 35.7 mph 0.00 in   Mostly Cloudy
8:56 AM 30.9 °F 15.9 °F 27.0 °F 85% 28.93 in 7.0 mi SSE 31.1 mph 41.4 mph 0.00 in Snow Light Snow
9:56 AM 30.0 °F 16.3 °F 26.1 °F 85% 28.98 in 10.0 mi SSE 24.2 mph 33.4 mph 0.00 in   Mostly Cloudy
10:56 AM 30.0 °F 15.7 °F 27.0 °F 88% 29.03 in 3.0 mi SSE 26.5 mph 36.8 mph 0.00 in Snow Light Snow
10:58 AM 30.2 °F 15.2 °F 26.6 °F 86% 29.03 in 1.5 mi SSE 29.9 mph 36.8 mph 0.00 in Snow Light Snow
11:02 AM 30.2 °F 14.1 °F 28.4 °F 93% 29.04 in 0.8 mi SSE 35.7 mph 39.1 mph 0.00 in Snow Light Snow
11:06 AM 30.2 °F 15.2 °F 28.4 °F 93% 29.04 in 0.5 mi South 29.9 mph 39.1 mph 0.00 in Fog , Snow Light Snow
11:12 AM 28.4 °F 13.5 °F 28.4 °F 100% 29.04 in 0.8 mi South 26.5 mph - 0.00 in Snow Light Snow
11:14 AM 28.4 °F 13.8 °F 28.4 °F 100% 29.04 in 1.5 mi South 25.3 mph - 0.00 in Snow Light Snow
11:16 AM 28.4 °F 13.5 °F 28.4 °F 100% 29.04 in 3.0 mi South 26.5 mph - 0.00 in Snow Light Snow
11:43 AM 30.2 °F 14.7 °F 28.4 °F 93% 29.06 in 3.0 mi SSE 32.2 mph 39.1 mph 0.00 in Snow Light Snow
11:45 AM 30.2 °F 14.5 °F 28.4 °F 93% 29.07 in 1.8 mi SSE 33.4 mph 39.1 mph 0.00 in Snow Light Snow
11:56 AM 28.9 °F 13.5 °F 28.0 °F 96% 29.08 in 3.0 mi SSE 29.9 mph 40.3 mph 0.00 in Snow Light Snow
12:04 PM 30.2 °F 14.3 °F 28.4 °F 93% 29.08 in 1.8 mi SSE 34.5 mph 38.0 mph 0.00 in Snow Light Snow
12:07 PM 30.2 °F 14.9 °F 28.4 °F 93% 29.08 in 1.0 mi SSE 31.1 mph 38.0 mph 0.00 in Snow Light Snow
12:12 PM 30.2 °F 14.7 °F 28.4 °F 93% 29.08 in 1.0 mi SSE 32.2 mph 36.8 mph 0.00 in Snow Light Snow
12:17 PM 28.4 °F 13.0 °F 28.4 °F 100% 29.08 in 2.0 mi SSE 28.8 mph 36.8 mph 0.00 in Snow Light Snow
12:24 PM 30.2 °F 14.9 °F 28.4 °F 93% 29.09 in 1.0 mi SSE 31.1 mph - 0.00 in Snow Light Snow
12:27 PM 30.2 °F 14.7 °F 28.4 °F 93% 29.10 in 0.8 mi South 32.2 mph - 0.00 in Snow Light Snow
12:34 PM 30.2 °F 15.2 °F 28.4 °F 93% 29.10 in 0.5 mi SSE 29.9 mph 35.7 mph 0.00 in Fog , Snow Snow
12:39 PM 30.2 °F 15.2 °F 28.4 °F 93% 29.10 in 0.5 mi SSE 29.9 mph 38.0 mph 0.00 in Fog , Snow Snow
12:43 PM 30.2 °F 15.4 °F 28.4 °F 93% 29.10 in 1.0 mi SSE 28.8 mph 38.0 mph 0.00 in Snow Light Snow
12:46 PM 30.2 °F 14.7 °F 28.4 °F 93% 29.10 in 2.5 mi SSE 32.2 mph 38.0 mph 0.00 in Snow Light Snow
12:48 PM 30.2 °F 15.2 °F 28.4 °F 93% 29.10 in 5.0 mi SSE 29.9 mph 35.7 mph 0.00 in Snow Light Snow
12:56 PM 30.0 °F 15.4 °F 28.0 °F 92% 29.11 in 9.0 mi SSE 27.6 mph - 0.00 in   Overcast
1:56 PM 30.0 °F 17.2 °F 28.0 °F 92% 29.15 in 10.0 mi SSE 20.7 mph 31.1 mph 0.00 in   Overcast
2:06 PM 30.2 °F 14.9 °F 28.4 °F 93% 29.16 in 1.2 mi SSE 31.1 mph 35.7 mph 0.00 in Snow Light Snow
2:09 PM 30.2 °F 16.2 °F 28.4 °F 93% 29.15 in 1.0 mi SSE 25.3 mph 35.7 mph 0.00 in Snow Light Snow
2:11 PM 30.2 °F 16.2 °F 28.4 °F 93% 29.16 in 1.0 mi SSE 25.3 mph 35.7 mph 0.00 in Snow Light Snow
2:13 PM 30.2 °F 15.7 °F 28.4 °F 93% 29.16 in 0.8 mi SSE 27.6 mph 35.7 mph 0.00 in Snow Light Snow
2:17 PM 30.2 °F 15.9 °F 28.4 °F 93% 29.16 in 1.2 mi SSE 26.5 mph 32.2 mph 0.00 in Snow Light Snow
2:25 PM 30.2 °F 16.2 °F 28.4 °F 93% 29.16 in 4.0 mi SSE 25.3 mph 35.7 mph 0.00 in Snow Light Snow
2:41 PM 30.2 °F 16.2 °F 26.6 °F 86% 29.17 in 10.0 mi SSE 25.3 mph - 0.00 in   Overcast
2:56 PM 30.9 °F 17.2 °F 28.0 °F 89% 29.18 in 10.0 mi SSE 25.3 mph - 0.00 in   Overcast
3:11 PM 30.2 °F 13.9 °F 28.4 °F 93% 29.19 in 1.8 mi SSE 36.8 mph 41.4 mph 0.00 in Snow Light Snow
3:20 PM 30.2 °F 15.7 °F 26.6 °F 86% 29.19 in 3.0 mi South 27.6 mph 36.8 mph 0.00 in Snow Light Snow
3:56 PM 30.9 °F 16.2 °F 27.0 °F 85% 29.23 in 9.0 mi SSE 29.9 mph 35.7 mph 0.00 in Snow Light Snow
4:43 PM 30.2 °F 15.4 °F 26.6 °F 86% 29.25 in 2.0 mi SSE 28.8 mph 36.8 mph 0.00 in Snow Light Snow
4:45 PM 30.2 °F 15.4 °F 26.6 °F 86% 29.25 in 1.0 mi SSE 28.8 mph 36.8 mph 0.00 in Snow Light Snow
4:47 PM 30.2 °F 15.7 °F 28.4 °F 93% 29.26 in 0.8 mi SSE 27.6 mph 36.8 mph 0.00 in Snow Light Snow
4:56 PM 30.0 °F 15.4 °F 28.0 °F 92% 29.26 in 1.2 mi SSE 27.6 mph 33.4 mph 0.00 in Snow Light Snow
4:59 PM 28.4 °F 14.1 °F 28.4 °F 100% 29.26 in 4.0 mi SSE 24.2 mph 33.4 mph 0.00 in Snow Light Snow
5:56 PM 30.0 °F 17.2 °F 26.1 °F 85% 29.30 in 10.0 mi SSE 20.7 mph - 0.00 in   Mostly Cloudy
6:56 PM 30.9 °F 15.9 °F 28.0 °F 89% 29.34 in 4.0 mi SSE 31.1 mph 38.0 mph 0.00 in Snow Light Snow
7:56 PM 30.0 °F 16.0 °F 27.0 °F 88% 29.38 in 8.0 mi SSE 25.3 mph 32.2 mph 0.00 in Snow Light Snow
8:56 PM 30.9 °F 19.1 °F 27.0 °F 85% 29.41 in 9.0 mi SSE 18.4 mph - 0.00 in   Overcast
9:56 PM 30.0 °F 17.5 °F 26.1 °F 85% 29.45 in 10.0 mi SSE 19.6 mph - N/A   Partly Cloudy
10:56 PM 30.9 °F 17.8 °F 26.1 °F 82% 29.48 in 10.0 mi SSE 23.0 mph - N/A   Partly Cloudy
11:56 PM 30.0 °F 18.7 °F 25.0 °F 82% 29.52 in 10.0 mi SE 16.1 mph - N/A   Clear